Pullman, WA

5:20 AM PDT on October 21, 2017 (GMT -0700)
Pullman-Moscow Regional

Weather History for KPUW - April, 2013

Change the Weather History Date:

Friday, April 26, 2013

  Actual Average Record
Temperature  
Mean Temperature 55 °F 48 °F  
Max Temperature 70 °F 60 °F 82 °F (1977)
Min Temperature 39 °F 37 °F 26 °F (1970)
Degree Days  
Heating Degree Days 10 17  
Month to date heating degree days 535 505  
Since 1 July heating degree days 5691 5964  
Cooling Degree Days 0 0  
Month to date cooling degree days 0 0  
Year to date cooling degree days 0 0  
Growing Degree Days 6 (Base 50)    
Moisture  
Dew Point 37 °F    
Average Humidity 51    
Maximum Humidity 70    
Minimum Humidity 32    
Precipitation  
Precipitation 0.00 in 0.05 in 0.60 in (2012)
Month to date precipitation 2.20 1.37  
Year to date precipitation 5.51 6.76  
Sea Level Pressure  
Sea Level Pressure 30.17 in    
Wind  
Wind Speed 6 mph (WSW)    
Max Wind Speed 17 mph    
Max Gust Speed 22 mph    
Visibility 10 miles    
Events      
T = Trace of Precipitation, MM = Missing Value Source: NWS Daily Summary

Daily Weather History Graph

Daily Weather History Graph

Search for Another Location

Airport or City:

Trip Planner

Search our weather history database for the weather conditions in past years. The results will help you decide how hot, cold, wet, or windy it might be!

Date:

Astronomy

Apr. 26, 2013 Rise Set
Actual Time 5:41 AM PDT 7:52 PM PDT
Civil Twilight 5:08 AM PDT 8:25 PM PDT
Nautical Twilight 4:27 AM PDT 9:06 PM PDT
Astronomical Twilight 3:41 AM PDT 9:52 PM PDT
Moon 9:25 PM PDT (4/26) 6:08 AM PDT (4/26)
Length of Visible Light 15h 17m
Length of Day
14h 11m
Full, 99% of the Moon is Illuminated
Apr 26
Full
May 2
Last Quarter
May 9
New
May 17
First Quarter
May 24
Full

Hourly Weather History & Observations

Time (PDT) Temp. Windchill Dew Point Humidity Pressure Visibility Wind Dir Wind Speed Gust Speed Precip Events Conditions
12:53 AM 46.0 °F 44.8 °F 34.0 °F 63% 30.11 in 10.0 mi ENE 3.5 mph - N/A   Clear
1:53 AM 46.9 °F - 33.1 °F 59% 30.10 in 10.0 mi ENE 3.5 mph - N/A   Clear
2:53 AM 46.0 °F 43.1 °F 33.1 °F 61% 30.11 in 10.0 mi ENE 5.8 mph - N/A   Clear
3:53 AM 44.1 °F 42.5 °F 33.1 °F 65% 30.14 in 10.0 mi ENE 3.5 mph - N/A   Clear
4:53 AM 45.0 °F - 33.1 °F 63% 30.15 in 10.0 mi Calm Calm - N/A   Clear
5:53 AM 43.0 °F - 33.1 °F 68% 30.16 in 10.0 mi Calm Calm - N/A   Clear
6:53 AM 48.0 °F - 35.1 °F 61% 30.18 in 10.0 mi East 3.5 mph - N/A   Clear
7:53 AM 52.0 °F - 37.0 °F 57% 30.20 in 10.0 mi East 8.1 mph - N/A   Clear
8:53 AM 57.0 °F - 39.0 °F 51% 30.21 in 10.0 mi SSW 9.2 mph - N/A   Clear
9:53 AM 60.1 °F - 39.9 °F 47% 30.22 in 10.0 mi SSW 9.2 mph - N/A   Clear
10:53 AM 63.0 °F - 41.0 °F 45% 30.22 in 10.0 mi SW 11.5 mph - N/A   Clear
11:53 AM 64.9 °F - 43.0 °F 45% 30.22 in 10.0 mi West 13.8 mph - N/A   Clear
12:53 PM 66.9 °F - 39.9 °F 37% 30.21 in 10.0 mi WSW 12.7 mph 20.7 mph N/A   Clear
1:53 PM 66.9 °F - 39.0 °F 36% 30.21 in 10.0 mi West 13.8 mph - N/A   Clear
2:53 PM 69.1 °F - 41.0 °F 36% 30.20 in 10.0 mi West 9.2 mph - N/A   Clear
3:53 PM 69.1 °F - 41.0 °F 36% 30.18 in 10.0 mi West 10.4 mph - N/A   Clear
4:53 PM 70.0 °F - 39.0 °F 32% 30.17 in 10.0 mi West 10.4 mph - N/A   Clear
5:53 PM 69.1 °F - 41.0 °F 36% 30.18 in 10.0 mi West 10.4 mph - N/A   Clear
6:53 PM 66.9 °F - 36.0 °F 32% 30.15 in 10.0 mi WSW 8.1 mph - N/A   Clear
7:53 PM 61.0 °F - 37.0 °F 41% 30.16 in 10.0 mi West 6.9 mph - N/A   Clear
8:53 PM 54.0 °F - 37.9 °F 55% 30.17 in 10.0 mi Calm Calm - N/A   Clear
9:53 PM 51.1 °F - 37.0 °F 59% 30.17 in 10.0 mi Calm Calm - N/A   Clear
10:53 PM 52.0 °F - 37.0 °F 57% 30.16 in 10.0 mi Calm Calm - N/A   Clear
11:53 PM 48.9 °F - 36.0 °F 61% 30.15 in 10.0 mi Calm Calm - N/A   Clear